| time (UTC) | temp F | wind direction | speed MPH | gust MPH | rain 1hr in | rain 24hr in | rain mn in | humidity % | barometer mb |
| 20260503174528 | 59 | 239 | 21.0 | 0.0 | 0.00 | 0.00 | 0.00 | 45 | 983.5 |
| 20260503173049 | 59 | 238 | 21.0 | 0.0 | 0.00 | 0.00 | 0.00 | 43 | 982.8 |
| 20260503160104 | 57 | 238 | 18.0 | 0.0 | 0.00 | 0.00 | 0.00 | 47 | 982.5 |
| 20260503120104 | 42 | 223 | 9.0 | 0.0 | 0.00 | 0.00 | 0.00 | 62 | 983.9 |
| 20260503081529 | 35 | 187 | 7.0 | 0.0 | 0.00 | 0.00 | 0.00 | 68 | 983.6 |
| 20260503071529 | 35 | 174 | 6.0 | 0.0 | 0.00 | 0.00 | 0.00 | 68 | 983.8 |
| 20260503060105 | 36 | 194 | 6.0 | 0.0 | 0.00 | 0.00 | 0.00 | 65 | 984.7 |
| 20260503054530 | 35 | 189 | 5.0 | 0.0 | 0.00 | 0.00 | 0.00 | 67 | 985.2 |
| 20260503051529 | 35 | 185 | 5.0 | 0.0 | 0.00 | 0.00 | 0.00 | 66 | 985.5 |
| 20260503050056 | 35 | 193 | 5.0 | 0.0 | 0.00 | 0.00 | 0.00 | 66 | 985.5 |
| 20260503044529 | 35 | 191 | 4.0 | 0.0 | 0.00 | 0.00 | 0.00 | 65 | 985.7 |
| 20260503043049 | 36 | 192 | 4.0 | 0.0 | 0.00 | 0.00 | 0.00 | 66 | 985.2 |
| 20260503041529 | 36 | 195 | 4.0 | 0.0 | 0.00 | 0.00 | 0.00 | 66 | 985.2 |
| 20260503040059 | 36 | 203 | 4.0 | 0.0 | 0.00 | 0.00 | 0.00 | 66 | 985.2 |
| 20260503034529 | 37 | 212 | 4.0 | 0.0 | 0.00 | 0.00 | 0.00 | 63 | 986.1 |
| 20260503033050 | 37 | 210 | 4.0 | 0.0 | 0.00 | 0.00 | 0.00 | 65 | 986.4 |
| 20260503031529 | 37 | 205 | 4.0 | 0.0 | 0.00 | 0.00 | 0.00 | 65 | 986.4 |
| 20260503030057 | 38 | 217 | 4.0 | 0.0 | 0.00 | 0.00 | 0.00 | 65 | 986.4 |
| 20260503024529 | 38 | 223 | 4.0 | 0.0 | 0.00 | 0.00 | 0.00 | 60 | 986.9 |
| 20260503023049 | 38 | 225 | 4.0 | 0.0 | 0.00 | 0.00 | 0.00 | 64 | 986.9 |
| 20260503021529 | 39 | 228 | 5.0 | 0.0 | 0.00 | 0.00 | 0.00 | 64 | 986.9 |
| 20260503020056 | 39 | 230 | 5.0 | 0.0 | 0.00 | 0.00 | 0.00 | 64 | 986.9 |
| 20260503014529 | 39 | 237 | 5.0 | 0.0 | 0.00 | 0.00 | 0.00 | 61 | 986.3 |
| 20260503013047 | 40 | 238 | 5.0 | 0.0 | 0.00 | 0.00 | 0.00 | 61 | 986.3 |
| 20260503011529 | 40 | 232 | 5.0 | 0.0 | 0.00 | 0.00 | 0.00 | 61 | 986.3 |
| 20260503010055 | 41 | 236 | 5.0 | 0.0 | 0.00 | 0.00 | 0.00 | 61 | 986.3 |
| 20260503004529 | 42 | 237 | 5.0 | 0.0 | 0.00 | 0.00 | 0.00 | 48 | 987.0 |
| 20260503003043 | 43 | 231 | 4.0 | 0.0 | 0.00 | 0.00 | 0.00 | 48 | 987.3 |
| 20260503001529 | 44 | 245 | 4.0 | 0.0 | 0.00 | 0.00 | 0.00 | 48 | 987.3 |
| 20260503000055 | 45 | 262 | 4.0 | 0.0 | 0.00 | 0.00 | 0.00 | 48 | 987.3 |
| 20260502234530 | 45 | 278 | 6.0 | 0.0 | 0.00 | 0.00 | 0.00 | 41 | 987.0 |
| 20260502233042 | 46 | 266 | 8.0 | 0.0 | 0.00 | 0.00 | 0.00 | 43 | 987.1 |
| 20260502231530 | 46 | 267 | 9.0 | 0.0 | 0.00 | 0.00 | 0.00 | 43 | 987.1 |
| 20260502230056 | 46 | 271 | 10.0 | 0.0 | 0.00 | 0.00 | 0.00 | 43 | 987.1 |
| 20260502224530 | 47 | 273 | 11.0 | 0.0 | 0.00 | 0.00 | 0.00 | 40 | 987.5 |
| 20260502223048 | 47 | 270 | 11.0 | 0.0 | 0.00 | 0.00 | 0.00 | 42 | 988.1 |
| 20260502221530 | 47 | 270 | 11.0 | 0.0 | 0.00 | 0.00 | 0.00 | 42 | 988.1 |
| 20260502220055 | 47 | 270 | 11.0 | 0.0 | 0.00 | 0.00 | 0.00 | 42 | 988.1 |
| 20260502214530 | 47 | 271 | 11.0 | 0.0 | 0.00 | 0.00 | 0.00 | 44 | 988.3 |
| 20260502213048 | 47 | 271 | 10.0 | 0.0 | 0.00 | 0.00 | 0.00 | 39 | 987.9 |
| 20260502211530 | 47 | 266 | 10.0 | 0.0 | 0.00 | 0.00 | 0.00 | 39 | 987.8 |
| 20260502210058 | 47 | 264 | 10.0 | 0.0 | 0.00 | 0.00 | 0.00 | 39 | 987.8 |
| 20260502204530 | 47 | 265 | 10.0 | 0.0 | 0.00 | 0.00 | 0.00 | 42 | 988.2 |
| 20260502203048 | 47 | 267 | 11.0 | 0.0 | 0.00 | 0.00 | 0.00 | 39 | 988.8 |
| 20260502201530 | 47 | 269 | 11.0 | 0.0 | 0.00 | 0.00 | 0.00 | 39 | 988.8 |
| 20260502200055 | 47 | 270 | 11.0 | 0.0 | 0.00 | 0.00 | 0.00 | 39 | 988.8 |
| 20260502194530 | 47 | 271 | 11.0 | 0.0 | 0.00 | 0.00 | 0.00 | 43 | 988.9 |
| 20260502193043 | 47 | 274 | 11.0 | 0.0 | 0.00 | 0.00 | 0.00 | 43 | 988.9 |
| 20260502191530 | 47 | 276 | 11.0 | 0.0 | 0.00 | 0.00 | 0.00 | 43 | 989.0 |
| 20260502190055 | 47 | 276 | 12.0 | 0.0 | 0.00 | 0.00 | 0.00 | 43 | 989.0 |
| 20260502184529 | 47 | 278 | 11.0 | 0.0 | 0.00 | 0.00 | 0.00 | 45 | 988.8 |
| 20260502183049 | 46 | 281 | 10.0 | 0.0 | 0.00 | 0.00 | 0.00 | 42 | 988.9 |
| 20260502181529 | 47 | 285 | 9.0 | 0.0 | 0.00 | 0.00 | 0.00 | 42 | 988.9 |